Phenix City, Alabama, United States (36867)
Lat: 32.47N, Lon: 85W
Wx Zone: ALZ048
Local Info
Past Weather Observations for Yesterday

NOTE: This archive is for the closest National Weather Service station to Phenix City. Information may differ from the station used for current weather conditions.

Time Weather Temperature Dewpoint Humidity Pressure Winds Precip Visibility
23:51
Clear
Fog And Mist
61°F / 16°C 57°F / 14°C 88% 29.89 in
(1012 mb)
Calm - 6SM
22:51
Clear
64°F / 18°C 59°F / 15°C 83% 29.89 in
(1012 mb)
NW 3.5 mph
(NW 6 kph)
- 9SM
21:51
Clear
64°F / 18°C 59°F / 15°C 83% 29.89 in
(1012 mb)
WNW 4.6 mph
(WNW 7 kph)
- 9SM
20:51
Mostly Cloudy
66°F / 19°C 61°F / 16°C 83% 29.89 in
(1012 mb)
NW 5.8 mph
(NW 9 kph)
- 9SM
19:51
Overcast
66°F / 19°C 64°F / 18°C 94% 29.89 in
(1012 mb)
SSW 4.6 mph
(SSW 7 kph)
- 7SM
18:51
Overcast
70°F / 21°C 61°F / 16°C 73% 29.86 in
(1011 mb)
W 4.6 mph
(W 7 kph)
- 8SM
17:51
Mostly Cloudy
70°F / 21°C 61°F / 16°C 73% 29.86 in
(1011 mb)
Calm - 9SM
16:51
Mostly Cloudy
Hazy
70°F / 21°C 63°F / 17°C 78% 29.86 in
(1011 mb)
W 4.6 mph
(W 7 kph)
0.00 in
(0.00 mm)
6SM
15:51
Mostly Cloudy
Light Rain
70°F / 21°C 64°F / 18°C 83% 29.86 in
(1011 mb)
SSW 4.6 mph
(SSW 7 kph)
0.00 in
(0.00 mm)
7SM
15:03
Overcast
Fog And Mist
70°F / 21°C 64°F / 18°C 83% 29.89 in
(1012 mb)
Calm 0.00 in
(0.00 mm)
6SM
14:51
Overcast
Thunder Storms
68°F / 20°C 64°F / 18°C 88% 29.89 in
(1012 mb)
W 5.8 mph
(W 9 kph)
0.08 in
(2.03 mm)
6SM
14:32
Overcast
Thunder Storms
66°F / 19°C 63°F / 17°C 88% 29.89 in
(1012 mb)
Variable 5.8 mph
(Variable 9 kph)
0.08 in
(2.03 mm)
3SM
14:20
Overcast
Thunder Storms
66°F / 19°C 63°F / 17°C 88% 29.89 in
(1012 mb)
WNW 10.4 mph
(WNW 17 kph)
0.03 in
(0.76 mm)
1 1/2SM
14:18
Overcast
Thunder Storms
66°F / 19°C 63°F / 17°C 88% 29.92 in
(1013 mb)
NW 9.2 mph
(NW 15 kph)
0.01 in
(0.25 mm)
2SM
14:10
Overcast
Thunder Storms
72°F / 22°C 61°F / 16°C 69% 29.89 in
(1012 mb)
NNW 15 mph
(NNW 24 kph)
0.00 in
(0.00 mm)
8SM
13:51
Overcast
75°F / 24°C 57°F / 14°C 54% 29.89 in
(1012 mb)
W 11.5 mph
(W 19 kph)
- 10SM
12:51
Mostly Cloudy
77°F / 25°C 57°F / 14°C 51% 29.89 in
(1012 mb)
W 12.7 mph
(W 20 kph)
- 10SM
11:51
Mostly Cloudy
75°F / 24°C 57°F / 14°C 54% 29.92 in
(1013 mb)
WNW 15 mph
(WNW 24 kph)
- 10SM
10:51
Partly Cloudy
75°F / 24°C 57°F / 14°C 54% 29.95 in
(1014 mb)
NW 11.5 mph
(NW 19 kph)
- 10SM
09:51
Clear
72°F / 22°C 59°F / 15°C 65% 29.95 in
(1014 mb)
SSW 5.8 mph
(SSW 9 kph)
- 10SM
08:51
Clear
68°F / 20°C 57°F / 14°C 69% 29.95 in
(1014 mb)
WNW 3.5 mph
(WNW 6 kph)
- 10SM
07:51
Clear
61°F / 16°C 55°F / 13°C 83% 29.95 in
(1014 mb)
Calm - 7SM
06:51
Partly Cloudy
55°F / 13°C 52°F / 11°C 88% 29.95 in
(1014 mb)
Calm - 7SM
05:51
Partly Cloudy
54°F / 12°C 52°F / 11°C 94% 29.95 in
(1014 mb)
Calm - 9SM
04:51
Overcast
54°F / 12°C 52°F / 11°C 94% 29.92 in
(1013 mb)
Calm - 8SM
03:51
Partly Cloudy
55°F / 13°C 52°F / 11°C 88% 29.92 in
(1013 mb)
Calm - 9SM
02:51
Clear
57°F / 14°C 54°F / 12°C 88% 29.95 in
(1014 mb)
Calm - 10SM
01:51
Clear
57°F / 14°C 52°F / 11°C 82% 29.95 in
(1014 mb)
Calm - 10SM
00:51
Clear
59°F / 15°C 54°F / 12°C 82% 29.98 in
(1015 mb)
Calm - 10SM
Time Weather Temperature Dewpoint Humidity Pressure Winds Precip Visibility


Weather for websites

WeatherForYou.com, LLC is not responsible for any damages or problems caused by this service. Current weather conditions are obtained from the closest station including government and personal stations which may have varying degrees of accuracy. Weather forecasts are derived from the NOAA NDFD. Like all things, this site belongs to Jesus Christ... He just trusts me to maintain it. If you have any questions or comments email webmaster@weatherforyou.com

Copyright © 2014, WeatherForYou.com LLC. All rights reserved.